WXM80 ListenWXM80 Stop

You find our weather info also at:

UK Metoffice

WeatherCloud

Weather Underground

Northeastern Weather Network

AWEKAS

Citizen Weather Observer Program (CWOP)

HAMweather, WeatherForYou, PWS Weather


Weather Underground History page Text

Daily Summary for May 1, 2016 Units:  English    Metric   Both
« Previous Day
Next Day »
Daily Weekly Monthly Yearly Custom
  High: Low: Average:
Temperature: 49.6 °F 43.6 °F 46.8 °F
Dew Point: 47.4 °F 40.3 °F 43.9 °F
Humidity: 97 % 80 % 90 %
Wind Speed: 9.7 mph 0.0 mph 2.1 mph
Wind Gust: 12.7 mph - -
Wind:- - ESE
Pressure: 30.24 in 30.05 in -
Precipitation: 0.16 in    
Historical Graphs
 
 
Tabular Data for May 1, 2016
Time Temperature Dew Point Pressure Wind Wind Speed Wind Gust Humidity Rainfall Rate (Hourly)
00:02 45.2 °F 40.3 °F 30.24 in Calm     83 % 0.00 in
00:07 45.2 °F 40.3 °F 30.24 in Calm     83 % 0.00 in
00:12 45.2 °F 40.3 °F 30.24 in Calm     83 % 0.00 in
00:17 45.3 °F 40.4 °F 30.23 in Calm     83 % 0.00 in
00:22 45.3 °F 40.4 °F 30.23 in Calm     83 % 0.00 in
00:27 45.4 °F 40.8 °F 30.23 in Calm     84 % 0.00 in
00:33 45.5 °F 40.9 °F 30.23 in Calm     84 % 0.00 in
00:38 45.5 °F 40.6 °F 30.23 in Calm     83 % 0.00 in
00:43 45.5 °F 40.6 °F 30.23 in Calm     83 % 0.00 in
00:48 45.6 °F 40.7 °F 30.23 in Calm     83 % 0.00 in
00:53 45.6 °F 41.0 °F 30.23 in Calm     84 % 0.00 in
00:58 45.6 °F 41.0 °F 30.22 in Calm     84 % 0.00 in
01:03 45.7 °F 41.4 °F 30.22 in Calm     85 % 0.00 in
01:08 45.8 °F 41.9 °F 30.22 in Calm     86 % 0.00 in
01:13 45.8 °F 41.9 °F 30.22 in Calm     86 % 0.00 in
01:18 45.8 °F 41.9 °F 30.22 in Calm     86 % 0.00 in
01:24 45.7 °F 41.8 °F 30.22 in Calm     86 % 0.00 in
01:29 45.7 °F 41.4 °F 30.22 in Calm     85 % 0.00 in
01:34 45.7 °F 41.4 °F 30.21 in Calm     85 % 0.00 in
01:39 45.7 °F 41.4 °F 30.22 in Calm     85 % 0.00 in
01:44 45.7 °F 41.4 °F 30.22 in Calm     85 % 0.00 in
01:49 45.7 °F 41.4 °F 30.20 in Calm     85 % 0.00 in
01:54 45.8 °F 41.5 °F 30.20 in Calm     85 % 0.00 in
01:59 45.8 °F 41.5 °F 30.20 in Calm     85 % 0.00 in
02:04 45.8 °F 41.9 °F 30.20 in Calm     86 % 0.00 in
02:09 45.8 °F 41.9 °F 30.19 in Calm     86 % 0.00 in
02:15 45.8 °F 41.9 °F 30.19 in Calm     86 % 0.00 in
02:20 45.8 °F 41.5 °F 30.19 in Calm     85 % 0.00 in
02:25 45.8 °F 41.5 °F 30.19 in Calm     85 % 0.00 in
02:30 45.7 °F 41.1 °F 30.19 in Calm     84 % 0.00 in
02:35 45.7 °F 41.1 °F 30.19 in Calm     84 % 0.00 in
02:40 45.7 °F 41.1 °F 30.18 in Calm     84 % 0.00 in
02:45 45.7 °F 41.1 °F 30.19 in Calm     84 % 0.00 in
02:50 45.7 °F 41.1 °F 30.19 in Calm     84 % 0.00 in
02:55 45.8 °F 41.2 °F 30.19 in Calm     84 % 0.00 in
03:00 45.8 °F 41.2 °F 30.19 in Calm     84 % 0.00 in
03:06 45.8 °F 41.2 °F 30.20 in Calm     84 % 0.00 in
03:11 45.8 °F 41.2 °F 30.20 in Calm     84 % 0.00 in
03:16 45.8 °F 41.2 °F 30.20 in Calm     84 % 0.00 in
03:21 45.9 °F 41.3 °F 30.20 in Calm     84 % 0.00 in
03:26 45.9 °F 41.3 °F 30.19 in Calm     84 % 0.00 in
03:31 45.9 °F 41.6 °F 30.19 in Calm     85 % 0.00 in
03:36 46.0 °F 41.7 °F 30.20 in Calm     85 % 0.00 in
03:41 46.0 °F 41.7 °F 30.19 in Calm     85 % 0.00 in
03:46 46.0 °F 41.7 °F 30.20 in Calm     85 % 0.00 in
03:51 46.0 °F 41.7 °F 30.20 in Calm     85 % 0.00 in
03:57 46.0 °F 41.7 °F 30.20 in Calm     85 % 0.00 in
04:02 46.0 °F 41.7 °F 30.20 in Calm     85 % 0.00 in
04:07 46.1 °F 41.8 °F 30.19 in Calm     85 % 0.00 in
04:12 46.1 °F 41.5 °F 30.20 in Calm     84 % 0.00 in
04:17 46.1 °F 41.8 °F 30.19 in Calm     85 % 0.00 in
04:22 46.2 °F 41.9 °F 30.19 in Calm     85 % 0.00 in
04:27 46.2 °F 41.9 °F 30.19 in Calm     85 % 0.00 in
04:32 46.1 °F 41.8 °F 30.19 in Calm     85 % 0.00 in
04:37 46.2 °F 41.9 °F 30.19 in Calm     85 % 0.00 in
04:42 46.2 °F 41.9 °F 30.19 in Calm     85 % 0.00 in
04:48 46.3 °F 42.0 °F 30.19 in Calm     85 % 0.00 in
04:53 46.3 °F 42.0 °F 30.19 in Calm     85 % 0.00 in
04:58 46.2 °F 41.6 °F 30.19 in Calm     84 % 0.00 in
05:03 46.3 °F 41.4 °F 30.19 in Calm     83 % 0.00 in
05:08 46.3 °F 41.4 °F 30.19 in Calm     83 % 0.00 in
05:13 46.3 °F 41.4 °F 30.19 in Calm     83 % 0.00 in
05:18 46.4 °F 41.5 °F 30.19 in Calm     83 % 0.00 in
05:23 46.4 °F 41.5 °F 30.19 in Calm     83 % 0.00 in
05:28 46.5 °F 41.6 °F 30.19 in Calm     83 % 0.00 in
05:33 46.5 °F 41.6 °F 30.19 in Calm     83 % 0.00 in
05:39 46.6 °F 41.7 °F 30.19 in Calm     83 % 0.00 in
05:44 46.7 °F 41.8 °F 30.19 in Calm     83 % 0.00 in
05:49 46.7 °F 42.1 °F 30.19 in Calm     84 % 0.00 in
05:54 46.7 °F 41.8 °F 30.19 in Calm   1.2 mph 83 % 0.00 in
05:59 46.7 °F 41.8 °F 30.19 in SSE 0.1 mph 1.2 mph 83 % 0.00 in
06:04 46.8 °F 41.9 °F 30.19 in Calm   1.2 mph 83 % 0.00 in
06:09 46.8 °F 41.6 °F 30.19 in SSE 0.2 mph 1.2 mph 82 % 0.00 in
06:14 46.9 °F 41.4 °F 30.19 in SSE 0.3 mph 2.3 mph 81 % 0.00 in
06:19 47.0 °F 41.8 °F 30.19 in SSE 0.4 mph 1.2 mph 82 % 0.00 in
06:24 47.1 °F 41.9 °F 30.19 in SSE 1.2 mph 2.3 mph 82 % 0.00 in
06:30 47.2 °F 42.3 °F 30.19 in SSE 0.9 mph 2.3 mph 83 % 0.00 in
06:35 47.3 °F 42.4 °F 30.19 in SSE 0.6 mph 1.2 mph 83 % 0.00 in
06:40 47.4 °F 42.5 °F 30.19 in Calm   2.3 mph 83 % 0.00 in
06:45 47.5 °F 42.6 °F 30.19 in SSE 0.2 mph 1.2 mph 83 % 0.00 in
06:50 47.6 °F 42.4 °F 30.19 in SSE 0.7 mph 1.2 mph 82 % 0.00 in
06:55 47.6 °F 42.4 °F 30.20 in SSE 0.5 mph 2.0 mph 82 % 0.00 in
07:00 47.7 °F 42.5 °F 30.20 in SSE 0.4 mph 1.2 mph 82 % 0.00 in
07:05 47.7 °F 42.5 °F 30.19 in Calm   1.2 mph 82 % 0.00 in
07:10 47.8 °F 42.6 °F 30.20 in SSE 0.4 mph 1.2 mph 82 % 0.00 in
07:15 47.8 °F 42.3 °F 30.20 in SSE 1.2 mph 3.5 mph 81 % 0.00 in
07:21 47.9 °F 42.3 °F 30.20 in SSE 2.9 mph 4.0 mph 81 % 0.00 in
07:26 47.9 °F 42.3 °F 30.21 in SSE 0.6 mph 3.5 mph 81 % 0.00 in
07:31 48.0 °F 42.4 °F 30.21 in SE 3.9 mph 4.6 mph 81 % 0.00 in
07:36 48.1 °F 42.9 °F 30.21 in Calm     82 % 0.00 in
07:41 48.2 °F 43.0 °F 30.21 in SSE 0.5 mph 2.3 mph 82 % 0.00 in
07:46 48.3 °F 43.1 °F 30.21 in ESE 1.3 mph 5.0 mph 82 % 0.00 in
07:51 48.4 °F 42.5 °F 30.21 in SE 1.8 mph 3.5 mph 80 % 0.00 in
07:56 48.5 °F 42.6 °F 30.21 in SE 3.3 mph 5.8 mph 80 % 0.00 in
08:01 48.5 °F 42.6 °F 30.21 in ESE 3.1 mph 4.0 mph 80 % 0.00 in
08:07 48.7 °F 42.8 °F 30.21 in SSE 1.3 mph 3.5 mph 80 % 0.00 in
08:12 48.7 °F 42.8 °F 30.21 in SE 1.6 mph 1.6 mph 80 % 0.00 in
08:17 48.7 °F 42.8 °F 30.21 in SSE 1.3 mph 4.6 mph 80 % 0.00 in
08:22 48.8 °F 43.2 °F 30.21 in SSE 0.4 mph 1.2 mph 81 % 0.00 in
08:27 48.8 °F 43.5 °F 30.21 in SE 0.8 mph 2.3 mph 82 % 0.00 in
08:32 48.9 °F 44.0 °F 30.21 in SE 0.1 mph 1.2 mph 83 % 0.00 in
08:37 49.0 °F 44.1 °F 30.22 in SE 0.1 mph 1.2 mph 83 % 0.00 in
08:42 49.0 °F 44.1 °F 30.22 in SE 0.2 mph 1.2 mph 83 % 0.00 in
08:47 49.1 °F 44.2 °F 30.22 in Calm     83 % 0.00 in
08:52 49.1 °F 44.2 °F 30.22 in Calm     83 % 0.00 in
08:58 49.1 °F 44.5 °F 30.22 in Calm   1.2 mph 84 % 0.00 in
09:03 49.2 °F 44.3 °F 30.22 in Calm   2.3 mph 83 % 0.00 in
09:08 49.2 °F 44.6 °F 30.23 in Calm     84 % 0.00 in
09:13 49.3 °F 45.0 °F 30.23 in Calm   1.2 mph 85 % 0.01 in
09:18 49.3 °F 45.0 °F 30.23 in Calm     85 % 0.01 in
09:28 49.3 °F 45.3 °F 30.23 in Calm     86 % 0.01 in
09:33 49.3 °F 45.6 °F 30.23 in Calm     87 % 0.01 in
09:38 49.4 °F 45.7 °F 30.23 in SE 0.4 mph 1.2 mph 87 % 0.01 in
09:49 49.4 °F 46.3 °F 30.22 in SE 2.2 mph 2.3 mph 89 % 0.02 in
09:54 49.3 °F 46.2 °F 30.21 in SSE 3.6 mph 5.8 mph 89 % 0.02 in
09:59 49.2 °F 46.1 °F 30.20 in SE 2.2 mph 4.6 mph 89 % 0.03 in
10:04 49.1 °F 46.3 °F 30.21 in East 0.9 mph 4.6 mph 90 % 0.03 in
10:09 49.1 °F 46.6 °F 30.21 in SSE 2.6 mph 4.6 mph 91 % 0.04 in
10:14 49.1 °F 46.3 °F 30.22 in SSE 0.9 mph 2.3 mph 90 % 0.03 in
10:19 49.0 °F 46.2 °F 30.22 in SSE 2.4 mph 3.5 mph 90 % 0.03 in
10:24 49.0 °F 46.5 °F 30.22 in SSE 0.4 mph 1.2 mph 91 % 0.03 in
10:29 49.0 °F 46.5 °F 30.21 in ESE 1.1 mph 3.5 mph 91 % 0.04 in
10:34 49.0 °F 46.5 °F 30.21 in SE 2.3 mph 3.0 mph 91 % 0.04 in
10:40 49.0 °F 46.5 °F 30.22 in Calm     91 % 0.04 in
10:45 49.0 °F 46.5 °F 30.21 in East 1.4 mph 3.5 mph 91 % 0.03 in
10:50 49.0 °F 46.5 °F 30.20 in SE 0.8 mph 2.3 mph 91 % 0.03 in
10:55 49.1 °F 46.9 °F 30.20 in SE 1.6 mph 3.5 mph 92 % 0.03 in
11:00 49.1 °F 46.9 °F 30.20 in SE 1.6 mph 4.0 mph 92 % 0.02 in
11:05 49.0 °F 46.5 °F 30.20 in South 0.2 mph 1.2 mph 91 % 0.02 in
11:10 49.1 °F 46.9 °F 30.21 in SE 1.5 mph 3.5 mph 92 % 0.01 in
11:15 49.1 °F 46.9 °F 30.20 in SE 1.0 mph 2.3 mph 92 % 0.01 in
11:20 49.1 °F 46.6 °F 30.20 in SE 1.4 mph 3.5 mph 91 % 0.02 in
11:25 49.1 °F 46.6 °F 30.20 in ESE 2.6 mph 4.6 mph 91 % 0.02 in
11:31 49.0 °F 46.5 °F 30.19 in SE 1.8 mph 5.0 mph 91 % 0.01 in
11:36 49.1 °F 46.6 °F 30.19 in SE 2.3 mph 4.6 mph 91 % 0.01 in
11:41 49.1 °F 46.6 °F 30.19 in SE 2.5 mph 5.8 mph 91 % 0.01 in
11:46 49.2 °F 46.7 °F 30.19 in SE 0.6 mph 4.6 mph 91 % 0.01 in
11:51 49.1 °F 46.6 °F 30.19 in SSE 1.9 mph 4.6 mph 91 % 0.01 in
11:56 49.1 °F 46.6 °F 30.19 in SE 1.3 mph 3.5 mph 91 % 0.01 in
12:01 49.2 °F 47.0 °F 30.19 in SSE 2.1 mph 4.6 mph 92 % 0.01 in
12:06 49.3 °F 47.1 °F 30.19 in SE 1.6 mph 3.0 mph 92 % 0.01 in
12:11 49.3 °F 47.1 °F 30.18 in ESE 1.1 mph 3.5 mph 92 % 0.02 in
12:16 49.3 °F 47.1 °F 30.18 in SE 1.3 mph 3.5 mph 92 % 0.02 in
12:22 49.5 °F 47.3 °F 30.18 in ESE 1.2 mph 3.5 mph 92 % 0.01 in
12:27 49.5 °F 47.3 °F 30.18 in SSE 3.0 mph 6.9 mph 92 % 0.01 in
12:32 49.5 °F 47.3 °F 30.18 in SE 2.5 mph 4.6 mph 92 % 0.01 in
12:37 49.6 °F 47.4 °F 30.18 in SSE 1.2 mph 3.0 mph 92 % 0.01 in
12:38 49.6 °F 47.4 °F 30.18 in South 2.7 mph 3.5 mph 92 % 0.01 in
12:48 49.3 °F 46.2 °F 30.17 in South 1.9 mph 4.6 mph 89 % 0.01 in
12:53 49.2 °F 46.1 °F 30.17 in SSE 2.5 mph 4.6 mph 89 % 0.01 in
12:59 49.2 °F 46.1 °F 30.17 in SSE 1.8 mph 4.6 mph 89 % 0.01 in
13:04 49.0 °F 45.9 °F 30.17 in SSE 5.8 mph 8.1 mph 89 % 0.01 in
13:09 48.9 °F 45.5 °F 30.17 in SSE 4.9 mph 8.1 mph 88 % 0.00 in
13:14 48.7 °F 45.3 °F 30.17 in SSE 0.9 mph 2.3 mph 88 % 0.00 in
13:19 48.8 °F 45.7 °F 30.17 in Calm   1.2 mph 89 % 0.00 in
13:24 48.9 °F 46.1 °F 30.17 in SSE 1.4 mph 3.5 mph 90 % 0.01 in
13:29 48.8 °F 46.0 °F 30.17 in Calm     90 % 0.01 in
13:39 48.7 °F 46.2 °F 30.16 in SE 1.7 mph 3.5 mph 91 % 0.02 in
13:44 48.7 °F 46.2 °F 30.15 in SE 1.2 mph 2.3 mph 91 % 0.02 in
13:50 48.7 °F 46.5 °F 30.15 in SE 1.3 mph 2.3 mph 92 % 0.02 in
13:55 48.7 °F 46.5 °F 30.15 in SE 0.5 mph 3.5 mph 92 % 0.02 in
14:00 48.7 °F 46.5 °F 30.15 in SE 4.1 mph 8.0 mph 92 % 0.03 in
14:05 48.6 °F 46.4 °F 30.15 in SE 2.4 mph 3.5 mph 92 % 0.03 in
14:10 48.6 °F 46.4 °F 30.15 in SSE 1.1 mph 2.3 mph 92 % 0.03 in
14:15 48.7 °F 46.8 °F 30.15 in Calm   1.2 mph 93 % 0.03 in
14:20 48.8 °F 46.9 °F 30.15 in SSE 3.3 mph 3.5 mph 93 % 0.03 in
14:25 48.6 °F 46.4 °F 30.14 in SSE 3.1 mph 3.5 mph 92 % 0.02 in
14:30 48.6 °F 46.4 °F 30.14 in SE 4.5 mph 5.8 mph 92 % 0.02 in
14:36 48.6 °F 46.4 °F 30.14 in SE 1.4 mph 2.3 mph 92 % 0.02 in
14:41 48.6 °F 46.4 °F 30.14 in SE 3.0 mph 10.4 mph 92 % 0.01 in
14:46 48.6 °F 46.4 °F 30.14 in ESE 0.8 mph 2.3 mph 92 % 0.01 in
14:51 48.6 °F 46.4 °F 30.14 in SSE 0.1 mph 3.5 mph 92 % 0.01 in
15:01 48.6 °F 46.7 °F 30.14 in ESE 0.1 mph 2.3 mph 93 % 0.00 in
15:06 48.6 °F 46.7 °F 30.14 in Calm   2.3 mph 93 % 0.00 in
15:11 48.5 °F 46.6 °F 30.14 in South 4.5 mph 7.0 mph 93 % 0.00 in
15:16 48.3 °F 46.1 °F 30.14 in SE 2.7 mph 6.9 mph 92 % 0.01 in
15:21 48.3 °F 46.4 °F 30.13 in SSE 1.3 mph 3.5 mph 93 % 0.01 in
15:27 48.2 °F 46.3 °F 30.13 in ESE 0.7 mph 3.5 mph 93 % 0.01 in
15:32 48.2 °F 46.3 °F 30.13 in ESE 0.5 mph 4.6 mph 93 % 0.01 in
15:37 48.2 °F 46.3 °F 30.13 in East 1.1 mph 3.5 mph 93 % 0.01 in
15:42 48.1 °F 46.2 °F 30.13 in ESE 1.0 mph 3.5 mph 93 % 0.01 in
15:47 48.2 °F 46.3 °F 30.13 in East 0.9 mph 2.3 mph 93 % 0.01 in
15:52 48.2 °F 46.3 °F 30.13 in East 1.7 mph 4.6 mph 93 % 0.01 in
15:57 48.2 °F 46.3 °F 30.13 in ESE 3.7 mph 8.0 mph 93 % 0.01 in
16:02 48.1 °F 46.2 °F 30.13 in SE 1.5 mph 6.0 mph 93 % 0.01 in
16:07 48.0 °F 46.1 °F 30.13 in Calm   1.2 mph 93 % 0.02 in
16:12 48.1 °F 46.5 °F 30.13 in SSE 0.3 mph 2.0 mph 94 % 0.02 in
16:23 47.9 °F 46.3 °F 30.13 in East 2.1 mph 4.6 mph 94 % 0.01 in
16:28 47.9 °F 46.3 °F 30.12 in ENE 2.1 mph 3.5 mph 94 % 0.01 in
16:33 47.9 °F 46.3 °F 30.12 in ESE 1.7 mph 3.5 mph 94 % 0.01 in
16:38 47.8 °F 46.2 °F 30.12 in East 1.5 mph 3.5 mph 94 % 0.01 in
16:43 47.7 °F 46.1 °F 30.12 in East 2.8 mph 4.6 mph 94 % 0.01 in
16:48 47.7 °F 46.1 °F 30.12 in East 2.1 mph 4.6 mph 94 % 0.01 in
16:53 47.6 °F 46.0 °F 30.12 in East 2.1 mph 3.5 mph 94 % 0.01 in
16:58 47.5 °F 45.9 °F 30.12 in East 3.6 mph 6.0 mph 94 % 0.02 in
17:03 47.4 °F 45.8 °F 30.12 in East 2.9 mph 5.0 mph 94 % 0.02 in
17:09 47.3 °F 45.7 °F 30.12 in ESE 2.8 mph 3.5 mph 94 % 0.01 in
17:14 47.3 °F 45.7 °F 30.12 in ENE 2.4 mph 4.0 mph 94 % 0.01 in
17:19 47.2 °F 45.6 °F 30.12 in East 3.2 mph 5.0 mph 94 % 0.01 in
17:24 47.1 °F 45.5 °F 30.12 in East 2.7 mph 4.6 mph 94 % 0.01 in
17:29 47.0 °F 45.6 °F 30.12 in ENE 3.9 mph 8.0 mph 95 % 0.01 in
17:34 46.8 °F 45.2 °F 30.12 in ENE 3.5 mph 6.9 mph 94 % 0.01 in
17:39 46.5 °F 44.9 °F 30.12 in ENE 4.3 mph 6.9 mph 94 % 0.01 in
17:44 46.3 °F 44.7 °F 30.12 in ENE 2.9 mph 4.6 mph 94 % 0.01 in
17:49 46.2 °F 44.8 °F 30.11 in ENE 4.3 mph 6.9 mph 95 % 0.02 in
17:54 46.1 °F 44.7 °F 30.11 in ENE 5.1 mph 5.1 mph 95 % 0.02 in
18:00 46.0 °F 44.6 °F 30.11 in NE 4.3 mph 6.0 mph 95 % 0.01 in
18:05 45.9 °F 44.5 °F 30.11 in ENE 3.8 mph 6.9 mph 95 % 0.01 in
18:10 45.7 °F 44.4 °F 30.11 in East 5.4 mph 6.9 mph 95 % 0.01 in
18:15 45.4 °F 43.8 °F 30.11 in ENE 3.6 mph 4.6 mph 94 % 0.01 in
18:20 45.3 °F 44.0 °F 30.11 in East 3.2 mph 5.0 mph 95 % 0.01 in
18:25 45.2 °F 43.9 °F 30.11 in East 5.8 mph 6.9 mph 95 % 0.01 in
18:30 45.1 °F 43.8 °F 30.11 in East 4.9 mph 6.0 mph 95 % 0.01 in
18:35 44.9 °F 43.6 °F 30.11 in East 6.3 mph 10.4 mph 95 % 0.01 in
18:40 44.7 °F 43.4 °F 30.11 in ENE 5.1 mph 8.1 mph 95 % 0.01 in
18:45 44.6 °F 43.3 °F 30.11 in ENE 5.0 mph 10.4 mph 95 % 0.01 in
18:51 44.5 °F 43.2 °F 30.11 in ENE 5.4 mph 10.4 mph 95 % 0.00 in
18:56 44.3 °F 43.0 °F 30.11 in East 6.4 mph 9.2 mph 95 % 0.01 in
19:01 44.3 °F 43.0 °F 30.10 in ENE 5.8 mph 9.2 mph 95 % 0.01 in
19:06 44.3 °F 43.0 °F 30.10 in ENE 6.8 mph 10.0 mph 95 % 0.01 in
19:11 44.2 °F 42.9 °F 30.10 in ENE 6.9 mph 9.0 mph 95 % 0.01 in
19:16 44.1 °F 42.8 °F 30.10 in East 6.3 mph 9.2 mph 95 % 0.01 in
19:21 44.0 °F 42.7 °F 30.09 in ENE 6.1 mph 8.1 mph 95 % 0.01 in
19:26 44.0 °F 42.7 °F 30.10 in East 6.5 mph 8.1 mph 95 % 0.01 in
19:31 43.9 °F 42.8 °F 30.09 in East 6.7 mph 8.1 mph 96 % 0.01 in
19:36 43.8 °F 42.7 °F 30.09 in East 7.3 mph 10.4 mph 96 % 0.01 in
19:42 43.8 °F 42.7 °F 30.09 in ESE 8.0 mph 11.5 mph 96 % 0.01 in
19:47 43.6 °F 42.5 °F 30.09 in East 6.2 mph 9.2 mph 96 % 0.01 in
19:52 43.6 °F 42.5 °F 30.09 in East 5.4 mph 9.2 mph 96 % 0.01 in
19:57 43.6 °F 42.5 °F 30.10 in East 6.7 mph 9.2 mph 96 % 0.00 in
20:02 43.6 °F 42.5 °F 30.10 in East 4.1 mph 6.0 mph 96 % 0.00 in
20:07 43.7 °F 42.6 °F 30.10 in ESE 5.9 mph 7.0 mph 96 % 0.00 in
20:12 43.7 °F 42.6 °F 30.10 in East 4.2 mph 6.9 mph 96 % 0.00 in
20:17 43.7 °F 42.6 °F 30.10 in East 3.4 mph 5.0 mph 96 % 0.00 in
20:22 43.8 °F 42.7 °F 30.10 in East 4.5 mph 5.8 mph 96 % 0.00 in
20:27 43.9 °F 42.8 °F 30.10 in East 3.4 mph 6.9 mph 96 % 0.00 in
20:33 44.0 °F 42.9 °F 30.09 in East 4.5 mph 5.0 mph 96 % 0.00 in
20:38 44.0 °F 42.9 °F 30.09 in East 3.5 mph 5.8 mph 96 % 0.00 in
20:43 44.0 °F 42.9 °F 30.09 in East 5.8 mph 9.2 mph 96 % 0.00 in
20:48 44.0 °F 42.9 °F 30.09 in East 3.2 mph 5.0 mph 96 % 0.00 in
20:53 44.1 °F 43.0 °F 30.09 in ENE 2.8 mph 7.0 mph 96 % 0.00 in
20:58 44.2 °F 43.1 °F 30.10 in East 4.1 mph 5.8 mph 96 % 0.00 in
21:03 44.3 °F 43.2 °F 30.10 in East 3.0 mph 5.0 mph 96 % 0.00 in
21:08 44.3 °F 43.2 °F 30.09 in East 2.3 mph 6.0 mph 96 % 0.00 in
21:13 44.4 °F 43.3 °F 30.09 in East 3.0 mph 6.9 mph 96 % 0.00 in
21:18 44.4 °F 43.3 °F 30.10 in ENE 3.6 mph 8.1 mph 96 % 0.00 in
21:24 44.5 °F 43.7 °F 30.10 in ENE 5.0 mph 8.1 mph 97 % 0.00 in
21:29 44.6 °F 43.5 °F 30.10 in ENE 4.4 mph 7.0 mph 96 % 0.01 in
21:34 44.7 °F 43.9 °F 30.10 in East 4.8 mph 8.1 mph 97 % 0.01 in
21:39 44.7 °F 43.9 °F 30.10 in ENE 8.6 mph 10.4 mph 97 % 0.01 in
21:44 44.7 °F 43.9 °F 30.09 in NE 9.2 mph 11.5 mph 97 % 0.01 in
21:49 44.7 °F 43.9 °F 30.09 in East 5.5 mph 9.0 mph 97 % 0.01 in
21:54 44.8 °F 44.0 °F 30.09 in ENE 8.7 mph 12.7 mph 97 % 0.01 in
21:59 44.8 °F 44.0 °F 30.08 in East 5.1 mph 8.1 mph 97 % 0.01 in
22:09 45.0 °F 44.2 °F 30.07 in East 5.9 mph 7.0 mph 97 % 0.01 in
22:15 45.0 °F 44.2 °F 30.07 in East 5.8 mph 8.0 mph 97 % 0.01 in
22:20 45.0 °F 44.2 °F 30.07 in ENE 5.5 mph 8.1 mph 97 % 0.01 in
22:25 45.1 °F 44.3 °F 30.07 in East 5.2 mph 9.2 mph 97 % 0.01 in
22:30 45.0 °F 44.2 °F 30.08 in ENE 2.3 mph 4.6 mph 97 % 0.00 in
22:35 45.1 °F 44.3 °F 30.07 in East 4.0 mph 6.9 mph 97 % 0.00 in
22:40 45.2 °F 44.4 °F 30.06 in East 3.6 mph 8.1 mph 97 % 0.00 in
22:45 45.2 °F 44.4 °F 30.05 in East 4.2 mph 6.0 mph 97 % 0.00 in
22:50 45.2 °F 44.4 °F 30.06 in ENE 6.0 mph 9.2 mph 97 % 0.00 in
22:55 45.2 °F 44.4 °F 30.06 in ENE 4.4 mph 8.1 mph 97 % 0.00 in
23:00 45.2 °F 44.4 °F 30.05 in ENE 3.6 mph 9.0 mph 97 % 0.00 in
23:11 45.3 °F 44.5 °F 30.06 in East 7.1 mph 11.5 mph 97 % 0.00 in
23:16 45.4 °F 44.6 °F 30.06 in ENE 7.8 mph 10.4 mph 97 % 0.00 in
23:21 45.4 °F 44.6 °F 30.06 in ENE 7.9 mph 11.5 mph 97 % 0.00 in
23:26 45.5 °F 44.7 °F 30.06 in ENE 7.3 mph 11.0 mph 97 % 0.00 in
23:31 45.5 °F 44.7 °F 30.06 in ENE 5.1 mph 8.1 mph 97 % 0.00 in
23:36 45.6 °F 44.8 °F 30.06 in East 7.7 mph 10.4 mph 97 % 0.00 in
23:41 45.7 °F 44.9 °F 30.06 in ENE 7.6 mph 11.5 mph 97 % 0.00 in
23:46 45.8 °F 45.0 °F 30.06 in ENE 8.7 mph 10.4 mph 97 % 0.00 in
23:51 45.8 °F 45.0 °F 30.06 in ENE 6.7 mph 11.5 mph 97 % 0.00 in
23:57 45.9 °F 45.1 °F 30.06 in East 9.7 mph 12.7 mph 97 % 0.00 in
Crab Meadow Weather
Compliments of Weather Underground - 2.75 mb

Script developed by  Jim McMurry - jmcmurry@mwt.net Adapted for the template by  Wim van der Kuil - Leuven-Template.eu

Weather Terms: Flood Watch - Conditions are favorable for flash flooding in and close to the watch area. These watches are issued by the Weather Forecast Office in Upton and are usually for the first 12 to 24 hours of a forecast.